GW6157 Weather Reports


time (UTC)temp
C
wind
direction
speed
KPH
gust
KPH
rain 1hr
cm
rain 24hr
cm
rain mn
cm
humidity
%
barometer
mb
20260505041518 8 360 0.0 4.8 0.00 0.15 0.00 85 1008.4
20260505040007 8 360 3.2 6.4 0.00 0.18 0.00 84 1008.5
20260505034509 8 360 1.6 6.4 0.00 0.23 0.00 83 1008.2
20260505030020 8 142 1.6 4.8 0.00 0.36 0.00 82 1007.9
20260505024528 9 142 3.2 8.0 0.00 0.38 0.36 82 1007.8
20260505023014 8 178 1.6 6.4 0.00 0.41 0.36 82 1007.6
20260505021529 8 170 1.6 6.4 0.00 0.41 0.36 81 1007.4
20260505020022 9 170 1.6 6.4 0.00 0.43 0.36 80 1007.4
20260505014526 9 185 0.0 3.2 0.00 0.43 0.36 79 1007.3
20260505013009 9 185 0.0 4.8 0.00 0.46 0.36 78 1007.2
20260505011504 10 218 1.6 8.0 0.00 0.48 0.36 77 1006.9
20260505010004 10 200 3.2 11.3 0.00 0.51 0.36 76 1006.7
20260505004510 10 223 6.4 14.5 0.00 0.53 0.36 75 1006.4
20260505003010 11 270 6.4 11.3 0.00 0.56 0.36 73 1006.0
20260505001512 11 265 8.0 17.7 0.00 0.56 0.36 72 1005.8
20260505000004 11 239 6.4 19.3 0.00 0.58 0.36 71 1005.8
20260504234503 11 246 11.3 22.5 0.00 0.64 0.36 71 1005.5
20260504233007 11 240 8.0 17.7 0.00 0.74 0.36 70 1005.3
20260504231510 11 231 14.5 29.0 0.00 0.89 0.36 69 1005.0
20260504230016 12 186 8.0 24.1 0.00 1.04 0.36 67 1004.7
20260504224507 12 220 8.0 17.7 0.00 1.22 0.36 67 1004.4
20260504223005 12 248 9.7 16.1 0.00 1.40 0.36 67 1004.2
20260504221533 12 233 11.3 24.1 0.00 1.55 0.36 66 1004.2
20260504220015 12 216 8.0 19.3 0.00 1.70 0.36 66 1004.0
20260504214517 12 219 4.8 14.5 0.00 1.83 0.36 69 1003.9
20260504213004 12 228 8.0 17.7 0.00 1.96 0.36 68 1003.9
20260504211505 12 195 8.0 17.7 0.00 2.06 0.36 67 1003.9
20260504210013 11 191 12.9 22.5 0.00 2.16 0.36 67 1003.9
20260504204517 12 214 11.3 22.5 0.00 2.26 0.36 65 1003.9
20260504203019 12 217 11.3 20.9 0.00 2.34 0.36 64 1003.8
20260504201503 12 202 11.3 20.9 0.00 2.46 0.36 64 1003.7
20260504200007 12 232 16.1 29.0 0.00 2.57 0.36 57 1003.7
20260504194513 13 155 12.9 22.5 0.00 2.72 0.36 48 1003.5
20260504193015 13 208 9.7 27.4 0.00 2.87 0.36 47 1003.5
20260504191520 13 162 17.7 29.0 0.00 3.05 0.36 45 1003.5
20260504190029 14 212 19.3 37.0 0.00 3.25 0.36 42 1003.4
20260504184519 15 191 14.5 40.2 0.00 3.45 0.36 40 1003.2
20260504183018 16 153 17.7 41.8 0.00 3.56 0.36 41 1003.0
20260504181522 16 208 19.3 32.2 0.00 3.66 0.36 43 1002.8
20260504180028 16 163 17.7 30.6 0.00 3.76 0.36 41 1002.9
20260504174508 16 201 16.1 33.8 0.00 3.89 0.36 39 1002.8
20260504173013 17 226 20.9 37.0 0.00 4.01 0.36 34 1002.8
20260504171526 16 182 14.5 33.8 0.00 4.11 0.36 34 1003.0
20260504081504 4 360 12.9 27.4 0.00 4.39 0.36 89 1000.0
20260504050020 4 360 8.0 25.7 0.10 4.32 0.28 91 998.5